Flag for Germany Weather past 2 weeks in Ahaus, North Rhine-Westphalia, Germany

Now
54 °F

Sunny.


Feels Like: 54 °F
Forecast: 51 / 57 °F
Wind: 1 mph from Southwest

Location: Twenthe

Current Time: Sep 23, 2014 at 10:46:54 AM

Latest Report: Sep 23, 2014 at 10:00 AM


Visibility: 7 mi

Pressure: 30.17 "Hg

Humidity: 83%

Dew point: 49 °F

Location of AhausLocation

Historic Weather in Ahaus — Graph

°F

Ahaus temperature yesterday

Maximum temperature yesterday: 62 °F (at 5:00 PM)
Minimum temperature yesterday: 44 °F (at 11:00 PM)
Average temperature yesterday: 55 °F

Past Weeks' High & Low Weather Summary

 TemperatureHumidityPressure
High78 °F (Sep 18, 4:00 PM)100% (Sep 9, 12:00 AM)30.28 "Hg (Sep 9, 12:00 AM)
Low39 °F (Sep 23, 8:00 AM)46% (Sep 22, 4:00 PM)29.84 "Hg (Sep 18, 4:00 PM)
Average60 °F85%30.06 "Hg
* Reported Sep 8 9:00 AM — Sep 23 9:00 AM, Ahaus, Weather by CustomWeather, © 2014

Note: Actual official high and low records may vary slightly from our data, if they occured in-between our weather recording intervals... More about our weather records

Advertising

Ahaus weather history for previous 24 hours

 ConditionsComfort  
Time TempWeatherWind HumidityBarometerVisibility
9:00 AM
Sep 23
49 °FPartly sunny.N/A97%30.16 "Hg4 mi
8:00 AM39 °FSunny.1 mph100%30.16 "Hg0 mi
7:00 AM40 °FPassing clouds.1 mph100%30.16 "Hg1 mi
6:00 AM40 °FPassing clouds.No wind98%30.15 "Hg0 mi
5:00 AM42 °FClear.1 mph100%30.15 "Hg1 mi
4:00 AM42 °FPassing clouds.1 mph100%30.15 "Hg0 mi
3:00 AM44 °FFog.1 mph100%30.17 "Hg2 mi
2:00 AM46 °FFog.1 mph99%30.17 "Hg6 mi
1:00 AM46 °FFog.1 mph99%30.18 "Hg4 mi
12:00 AM44 °FFog.1 mph97%30.18 "Hg5 mi
11:00 PM
Sep 22
44 °FFog.1 mph98%30.17 "Hg6 mi
10:00 PM47 °FClear.1 mph92%30.16 "Hg9 mi
9:00 PM50 °FPassing clouds.2 mph77%30.15 "Hg13 mi
8:00 PM53 °FClear.2 mph71%30.14 "Hg14 mi
7:00 PM57 °FSunny.5 mph58%30.13 "Hg17 mi
6:00 PM59 °FScattered clouds.7 mph57%30.11 "Hg17 mi
5:00 PM62 °FPassing clouds.7 mph49%30.10 "Hg16 mi
4:00 PM61 °FPassing clouds.7 mph46%30.09 "Hg19 mi
3:00 PM59 °FScattered clouds.2 mph71%30.08 "Hg16 mi
2:00 PM59 °FPassing clouds.6 mph71%30.08 "Hg12 mi
1:00 PM55 °FScattered clouds.3 mph85%30.09 "Hg12 mi
12:00 PM50 °FLots of rain. Overcast.9 mph88%30.09 "Hg3 mi
11:00 AM57 °FPassing clouds.7 mph77%30.05 "Hg7 mi
10:00 AM54 °FRain showers. Overcast.5 mph79%30.06 "Hg6 mi
Weather by CustomWeather, © 2014

See weather overviewHow to use our weather pages